Regional Weather Roundup
Issued by NWS

Home | Current Version | Previous Version | Text Only | Print | Product List | Glossary Off
Versions: 1 2 3 4 5 6 7 8 9 10 11 12 13 14 15 16 17 18 19 20 21 22 23 24 25 26 27 28 29 30 31 32 33 34 35 36 37 38 39 40 41 42 43 44 45 46 47 48 49 50

000
ASUS43 KOAX 201310
RWRNE

WEATHER ROUNDUP FOR NEBRASKA
NATIONAL WEATHER SERVICE OMAHA NE
800 AM CDT SUN AUG 20 2017

NOTES: SATELLITE DATA IS BEING USED TO AUGMENT CLOUD COVER ABOVE
       12000 FEET.
       "FAIR" INDICATES FEW OR NO CLOUDS BELOW 12,000 FEET WITH NO
       SIGNIFICANT WEATHER AND/OR OBSTRUCTIONS TO VISIBILITY.


NEZ001>004-019>022-054>056-201400-
NEBRASKA PANHANDLE

CITY           SKY/WX    TMP DP  RH WIND       PRES   REMARKS
SCOTTSBLUFF    CLOUDY    61  45  55 VRB5      30.05R
ALLIANCE       PTCLDY    59  57  93 NE14      30.00R
CHADRON        CLEAR     56  49  77 NE5       30.04R
GORDON         FAIR      63  54  73 E7        30.03R
KIMBALL        PTCLDY    58  39  48 NW8       30.07R
SIDNEY         CLOUDY    55  46  71 NW10      30.02R
$$

NEZ057>060-069>072-079>082-201400-
SOUTHWEST NEBRASKA

CITY           SKY/WX    TMP DP  RH WIND       PRES   REMARKS
NORTH PLATTE   SUNNY     65  62  90 N13       29.94R
IMPERIAL       CLEAR     61  56  83 SW7       29.94R
LEXINGTON      SUNNY     66  63  90 E6        29.90R
MCCOOK         SUNNY     63  58  83 SW7       29.88R
OGALLALA       CLEAR     65  62  91 N15       29.96R
$$

NEZ005>010-023>029-035>040-094-201400-
NORTH CENTRAL NEBRASKA

CITY           SKY/WX    TMP DP  RH WIND       PRES   REMARKS
VALENTINE      SUNNY     68  61  78 N7        29.99R
AINSWORTH      SUNNY     63  63  97 NW3       29.99R
BROKEN BOW     MOSUNNY   64  61  90 N8        29.95R
O`NEILL        SUNNY     66  61  85 CALM      29.97R
ORD            SUNNY     62  59  90 NW3       29.93R
THEDFORD       SUNNY     63  60  91 N3        29.98R
$$

NEZ041-046>049-061>064-073>077-083>087-201400-
SOUTH CENTRAL NEBRASKA

CITY           SKY/WX    TMP DP  RH WIND       PRES   REMARKS
GRAND ISLAND   SUNNY     68  63  84 S13       29.89F
AURORA         SUNNY     68  62  82 S12       29.89S
HASTINGS       SUNNY     66  61  84 SE13G20   29.92R
HEBRON         SUNNY     68  63  83 SE7       29.91F
HOLDREGE       SUNNY     65  63  93 SE8       29.91R
KEARNEY        SUNNY     65  63  93 SE12      29.92R
YORK           SUNNY     68  61  77 S9        29.89R
$$

NEZ011>018-030>034-042>045-201400-
NORTHEAST NEBRASKA

CITY           SKY/WX    TMP DP  RH WIND       PRES   REMARKS
NORFOLK        SUNNY     66  62  87 NW5       29.90R
ALBION         SUNNY     65  61  86 CALM      29.92R
BLAIR          RAIN      68  65  89 E6        29.89R
COLUMBUS       SUNNY     66  62  87 CALM      29.90R
FREMONT        MOSUNNY   67  63  87 CALM      29.89R
TEKAMAH        MOSUNNY   67  65  93 SE5       29.89S
WAYNE          MOSUNNY   64  62  91 N8        29.93R
$$

NEZ050>053-065>068-078-088>093-201400-
SOUTHEAST NEBRASKA

CITY           SKY/WX    TMP DP  RH WIND       PRES   REMARKS
LINCOLN        CLOUDY    68  64  87 SW7       29.90R THUNDER
OMAHA EPPLEY   CLOUDY    70  64  81 E10       29.87F THUNDER
BEATRICE       SUNNY     70  62  76 SE9       29.91S
FALLS CITY     CLOUDY    69  65  86 E9        29.95F
NEBRASKA CITY  CLOUDY    67  67 100 S12       29.92R
PLATTSMOUTH    LGT RAIN  67  63  85 SE8       29.88R
$$

NEZ044-045-051>053-067-201400-
OMAHA AREA

CITY           SKY/WX    TMP DP  RH WIND       PRES   REMARKS
OMAHA EPPLEY   CLOUDY    70  64  81 E10       29.87F THUNDER
BLAIR          RAIN      68  65  89 E6        29.89R
FREMONT        MOSUNNY   67  63  87 CALM      29.89R
MILLARD        CLOUDY    70  66  87 SW3       29.89R
OFFUTT AFB     CLOUDY    68  64  88 SW7       29.86F
PLATTSMOUTH    LGT RAIN  67  63  85 SE8       29.88R
WAHOO          FAIR      65  64  96 CALM      29.88R
$$




USA.gov is the U.S. government's official web portal to all federal, state and local government web resources and services.